sat.trackr.live / text

‹ back to catalog

STARLINK-11619 [DTC]

NORAD 63272 · 2025-053H

PAYLOAD ACTIVE UNKNOWN

§ Identity

Operator
Country
US
Launch date
2025-03-15
Launch site
AFETR
Launch vehicle
Mass (kg)
RCS (m²)

Purposes: comms

External: N2YO · Heavens-Above · Gunter

§ Orbital elements

Epoch: 2026-09-20T08:19:35.890752Z

Period
91.67 min
Inclination
43.0019°
Eccentricity
0.0001725
Mean motion
15.70852731 rev/d
Perigee alt
355.3 km
Apogee alt
357.6 km
Semi-major
6,734.6 km
B*
1.7515e-4
RAAN
18.9353°
Arg perigee
271.7867°
Mean anomaly
88.2803°
Rev number
8,828

§ Raw data

STARLINK-11619 [DTC]1 63272U 25053H   26263.34694318  .00022097  00000+0  17515-3 0  99932 63272  43.0019  18.9353 0001725 271.7867  88.2803 15.70852731 88285

JSON: /api/v1/satellites/63272 · /tle

For live sub-satellite position, see the globe view (requires WebGL).

§ Visibility from observer

Set your observer location to see the next 7 days of passes ≥ 10°. The values pass through the URL so the page stays shareable.

No JS? Fill the form by hand. The geolocation button needs JavaScript.